RH
19 16 15 15 20 22 48 42 45 53 43 40 33 34 31 30 31 28 25 30 30 30 35 38 33 34 35 37 40 39 32 32 36 39 39 42 47 54 38 100 100 100 100 100 100
22 21 19 17 22 43 62 72 75 79 56 42 46 47 41 40 39 32 30 32 37 47 49 58 61 43 41 43 48 59 54 45 45 63 49 47 57 69 81 83 100 100 100 100 100
25 25 18 17 23 61 77 78 78 70 47 52 42 44 39 37 40 36 30 38 52 60 57 63 60 55 57 54 51 62 81 79 82 72 76 59 48 54 72 100 100 100 100 100 100
26 22 18 20 28 59 68 68 59 47 41 35 27 30 34 35 38 35 36 44 60 63 68 60 56 62 57 54 68 70 86 100 100 94 88 88 62 94 90 72 97 100 100 100 100
28 22 18 21 44 64 64 53 34 25 19 17 18 19 18 20 24 29 39 54 67 64 79 71 64 69 80 86 95 100 97 100 100 100 100 100 100 100 98 100 100 100 100 100 100
24 21 17 27 60 63 46 29 18 14 14 15 14 14 15 18 23 31 45 64 68 80 81 73 71 73 88 100 100 98 90 88 95 98 100 100 100 100 100 100 100 100 100 100 100
24 20 19 53 63 56 34 19 15 15 16 15 13 13 15 20 22 31 51 66 77 75 83 87 79 98 100 98 100 93 96 99 99 100 100 100 100 100 100 94 93 90 100 100 100
23 17 28 54 60 46 23 16 16 18 18 16 14 15 15 20 27 38 50 62 71 76 87 82 86 100 100 100 91 87 95 99 90 94 95 93 97 99 99 93 87 100 100 100 100
24 18 37 52 55 29 16 15 18 18 18 16 18 20 21 26 33 41 48 57 67 86 91 88 92 84 73 70 60 79 99 100 97 84 78 74 74 72 75 76 76 75 74 78 76
19 20 44 50 26 17 14 18 18 19 19 19 18 19 37 46 46 52 58 65 70 70 75 67 72 74 68 70 67 60 61 70 79 83 79 70 64 44 45 52 54 50 44 40 37
17 28 45 28 16 14 16 17 17 19 21 24 24 26 31 45 50 52 51 48 54 47 46 50 52 54 41 37 26 21 20 18 11 14 25 39 46 42 34 15 9 8 16 20 32
18 38 41 16 14 14 15 15 17 19 20 19 18 18 20 22 26 26 25 26 33 38 39 37 32 24 14 7 5 7 7 8 14 21 19 17 15 12 18 39 59 68 73 86 92
20 44 29 14 14 13 17 15 16 16 16 17 16 15 16 16 16 16 15 16 18 16 13 12 11 12 13 17 26 25 21 19 17 15 23 35 51 84 90 89 88 84 82 71 53
29 45 17 14 14 15 16 16 15 16 16 14 13 13 13 14 15 13 9 9 8 10 12 15 16 18 19 19 22 36 42 41 43 68 89 90 76 69 60 55 49 41 32 26 23
41 39 15 15 16 15 16 17 17 19 16 14 17 15 15 20 20 27 29 27 28 29 27 31 37 42 39 55 58 58 76 73 63 48 38 37 32 26 28 20 20 20 18 18 22
48 20 17 17 18 19 17 24 28 28 37 40 45 44 51 54 44 54 60 62 65 66 69 70 60 64 69 66 59 42 27 23 22 22 28 27 25 25 24 23 25 27 30 42 50
54 11 17 17 21 30 28 39 44 50 56 60 63 64 64 65 63 57 51 46 44 38 37 48 41 41 30 20 21 23 23 26 27 27 30 28 29 32 33 42 52 52 48 44 46
60 17 28 28 44 46 47 50 53 64 58 55 67 57 42 38 34 33 24 19 20 18 18 20 18 16 17 22 24 21 20 22 26 34 38 41 48 52 51 47 44 47 50 55 58
46 30 53 58 61 58 54 61 66 69 57 53 38 26 27 26 24 25 24 23 23 24 28 26 26 24 22 27 39 50 52 49 46 40 40 41 44 45 48 49 54 60 60 57 52
25 39 68 79 67 80 71 67 61 63 42 32 28 28 30 33 40 42 41 39 34 27 24 21 22 45 56 54 48 48 43 45 46 46 44 47 47 49 52 51 50 49 47 44 41
22 47 71 76 83 82 81 71 68 51 28 32 30 30 38 48 52 48 36 28 24 20 23 44 58 55 49 47 45 44 46 54 54 55 51 55 55 53 48 44 41 38 36 34 33
35 57 82 75 91 79 78 69 51 34 27 38 36 34 39 51 59 49 29 32 28 37 62 58 52 52 57 59 60 58 57 59 59 59 57 52 48 44 43 42 40 40 43 42 41
64 73 81 98 89 75 73 70 42 41 44 37 33 39 52 60 56 44 51 55 58 64 59 51 59 67 69 69 68 62 61 65 66 58 51 51 50 47 44 44 42 48 49 44 42
54 66 87 90 77 72 73 75 49 56 50 35 36 46 54 54 59 62 66 61 56 62 58 56 59 67 71 73 67 62 62 61 61 54 56 52 52 51 49 47 49 52 54 61 62
61 83 100 78 80 73 65 69 61 56 48 36 43 50 58 68 74 65 64 70 66 64 62 66 71 72 74 72 64 63 65 62 57 55 55 47 55 54 55 53 54 59 47 54 64
78 100 100 80 84 72 73 72 58 57 56 42 51 59 61 79 89 86 86 84 82 78 84 85 83 76 66 63 64 71 70 66 60 63 66 73 73 71 63 52 60 75 70 55 58
98 100 99 83 81 75 66 69 68 67 62 50 55 63 66 72 79 94 100 100 97 100 98 88 79 69 70 67 70 80 61 68 67 76 77 89 70 73 56 55 77 86 83 72 70
Wind_Speed
76 75 78 72 60 50 41 38 35 34 35 34 34 35 38 38 39 38 37 41 43 40 43 44 46 46 44 45 46 48 49 51 53 58 59 65 70 74 75 79 84 73 75 72 73
76 73 75 67 55 40 38 35 33 34 35 34 36 37 38 38 38 36 38 37 40 41 42 41 41 40 38 38 42 43 46 48 48 49 55 58 67 71 63 69 75 79 76 77 78
76 75 68 58 49 37 35 34 32 34 32 31 33 33 36 36 36 34 33 35 38 40 40 38 35 32 33 36 38 41 42 44 44 48 51 54 64 64 68 63 68 69 67 75 78
71 67 64 54 45 36 34 35 34 31 31 31 29 30 31 32 33 33 32 32 35 34 33 30 29 31 35 35 36 36 38 40 46 46 45 48 54 58 63 64 62 70 68 65 59
71 62 65 50 39 35 35 34 31 27 28 27 29 30 30 29 30 31 29 29 32 32 28 25 24 24 30 33 32 32 36 40 40 46 47 45 47 54 60 57 61 60 62 68 63
68 65 60 44 34 35 36 31 26 25 25 26 26 25 25 26 29 29 28 30 31 30 28 25 21 22 23 30 32 30 30 32 38 42 43 47 49 46 59 65 63 67 68 66 66
68 65 48 36 33 36 36 29 23 23 21 21 20 20 21 25 26 26 27 27 28 29 28 28 27 27 27 29 29 29 28 28 30 35 40 44 44 51 48 53 62 67 70 70 74
62 56 37 33 36 37 31 25 21 19 16 16 16 18 23 25 26 27 27 28 29 28 29 29 29 27 28 29 30 29 26 28 27 26 29 34 38 45 49 50 50 58 63 65 60
61 50 31 32 39 34 25 20 17 14 12 15 17 21 21 24 26 28 29 30 31 28 26 28 26 26 27 27 22 21 24 26 28 29 29 29 32 36 40 45 47 49 51 56 62
55 41 30 34 36 26 19 15 14 12 12 15 19 20 18 18 19 23 23 25 25 23 23 23 22 22 21 22 23 23 24 27 30 32 33 33 34 34 35 37 39 44 46 48 51
52 34 32 34 26 19 15 15 15 17 16 17 19 20 21 21 20 20 19 19 21 24 24 23 22 24 24 27 26 26 25 27 30 31 32 33 36 37 39 39 40 43 42 43 43
44 28 33 28 17 15 14 16 20 19 19 19 19 19 20 21 22 21 21 20 23 25 24 23 25 27 27 26 25 22 21 25 30 31 30 31 34 33 32 32 33 33 34 33 34
36 27 31 21 15 14 15 19 20 18 19 19 18 19 19 20 20 21 21 21 22 22 22 21 21 21 21 21 19 19 22 25 26 24 22 22 23 24 25 27 28 27 29 31 32
28 28 25 18 13 16 19 19 18 18 18 17 16 17 18 18 18 16 16 17 19 20 19 17 20 21 21 20 17 14 16 16 18 16 16 17 18 22 24 27 26 25 26 26 30
24 26 20 18 16 19 19 19 20 18 18 18 16 18 19 19 20 19 18 17 14 13 15 16 18 19 19 14 15 16 14 11 9 10 12 13 15 18 22 24 23 24 27 28 28
21 22 16 20 20 21 23 24 23 22 21 17 15 17 17 16 17 17 16 15 16 13 12 15 17 14 12 10 9 9 7 6 6 7 12 16 18 23 22 23 23 23 22 20 21
23 20 20 23 24 24 25 26 24 22 20 18 18 19 19 18 15 14 13 14 12 13 14 14 12 14 14 10 7 6 7 8 10 13 18 20 22 21 18 16 18 20 23 24 25
26 23 26 27 26 27 27 26 25 22 22 18 18 17 15 14 13 13 14 14 15 14 11 11 12 12 8 7 7 7 7 8 7 6 5 5 8 11 16 19 22 24 26 28 31
27 28 29 29 28 27 28 29 26 23 21 18 18 18 16 16 16 15 14 13 12 12 14 14 12 10 10 11 12 11 8 6 6 7 7 7 9 13 17 21 24 27 30 33 36
33 33 32 30 29 29 29 27 24 21 20 21 20 18 17 16 15 14 14 15 16 14 14 13 14 16 14 11 9 6 3 2 2 5 8 11 14 17 20 22 25 29 32 36 39
39 35 34 32 32 31 28 24 24 22 24 24 20 18 17 14 12 12 14 13 13 14 15 17 14 13 11 7 3 2 2 3 6 9 11 13 14 16 20 23 27 33 38 43 47
40 38 35 34 34 33 30 26 27 26 26 24 20 18 16 11 10 12 13 13 15 17 17 15 13 9 7 3 3 5 6 7 10 12 15 17 18 22 25 29 34 39 44 47 50
41 40 36 37 36 34 32 31 30 29 28 24 21 19 16 14 13 14 15 17 18 17 15 14 11 8 5 6 8 10 11 12 15 18 20 20 23 27 30 36 41 46 50 52 53
44 41 37 40 39 36 35 32 33 31 27 25 22 19 16 14 15 16 18 17 17 15 14 11 9 8 8 11 13 15 15 17 20 22 26 26 29 31 37 42 46 51 50 53 56
40 39 39 40 37 36 34 35 33 29 26 26 23 20 17 15 16 17 19 19 17 14 13 12 12 12 13 16 17 20 22 24 27 29 32 33 34 37 42 47 52 56 56 57 57
40 41 41 45 41 38 36 35 32 28 27 26 23 20 19 17 16 14 14 14 14 14 14 15 17 17 17 18 20 24 28 29 31 35 37 36 40 44 48 50 54 60 62 62 61
44 44 45 45 39 36 37 36 32 29 28 27 25 21 19 18 17 16 14 14 16 18 20 21 20 20 23 25 24 30 31 32 35 39 39 39 45 50 52 56 61 66 66 68 70
Wind_Direction
312 313 316 321 316 306 293 289 281 277 269 263 253 247 241 237 239 234 234 234 234 235 238 240 242 243 242 243 243 244 242 238 232 232 232 233 233 237 236 238 238 238 241 244 250
311 313 316 317 314 302 290 288 283 280 271 265 257 250 242 238 233 229 230 229 228 229 232 233 237 239 238 239 237 239 237 237 234 234 235 235 235 234 238 241 239 241 243 247 251
313 314 318 315 311 298 291 287 281 274 268 260 254 251 241 232 225 226 229 226 224 223 225 228 232 232 231 233 235 236 236 236 236 234 235 239 241 242 238 239 243 242 250 254 255
311 315 318 313 304 293 292 287 281 277 271 261 255 247 239 231 224 226 227 224 221 221 220 225 226 226 230 233 234 232 231 235 236 238 242 243 242 243 242 248 247 246 252 251 253
309 314 318 310 297 292 291 292 286 280 269 262 254 246 236 228 222 221 224 221 216 216 217 220 226 230 230 231 231 234 233 232 233 238 240 244 247 245 247 246 245 251 255 256 266
307 312 314 309 290 291 294 294 281 271 260 254 248 243 237 226 218 214 215 213 214 210 210 217 227 231 234 230 230 232 236 238 239 235 243 246 246 249 243 241 248 251 250 255 262
306 315 312 303 292 294 297 287 277 263 249 244 240 231 222 215 211 210 205 204 207 205 211 223 225 221 224 228 232 235 239 248 247 245 244 247 248 246 250 253 254 254 254 259 261
305 314 308 296 295 296 291 280 267 251 241 233 216 210 208 207 204 202 200 202 206 212 219 220 217 220 226 232 232 237 240 246 247 249 252 254 254 250 252 256 259 257 257 258 258
306 311 302 296 294 289 281 266 246 238 228 211 197 201 199 200 199 198 200 202 206 203 209 210 211 217 221 230 235 235 237 245 252 256 257 258 262 260 260 259 259 262 265 267 268
307 308 299 298 286 278 266 240 223 213 196 189 192 192 191 194 199 201 204 203 196 201 208 212 216 219 229 237 237 233 233 239 245 250 251 256 259 264 266 265 263 261 264 268 268
305 306 299 291 277 263 231 210 198 189 178 183 185 183 183 184 187 188 189 199 204 210 211 213 219 226 231 239 243 244 246 251 253 254 254 254 257 260 262 263 263 265 268 269 271
302 300 299 284 267 230 212 208 192 185 185 188 186 187 186 186 189 191 192 201 214 218 217 216 224 230 231 233 236 241 244 245 248 251 253 253 255 258 262 265 267 270 271 273 276
296 292 295 269 237 215 198 197 188 188 191 188 190 190 187 187 187 188 198 201 208 211 210 208 215 221 225 230 236 236 238 241 246 250 253 255 257 261 260 262 268 272 273 276 280
292 290 279 240 223 208 191 187 185 189 189 187 188 186 185 180 178 178 188 195 197 198 203 210 222 219 223 224 220 216 231 239 249 256 259 267 274 276 274 274 274 277 278 278 276
281 288 258 221 204 194 184 183 177 172 176 178 176 176 168 168 171 166 173 178 181 193 200 197 207 207 212 218 223 215 220 229 246 266 280 270 267 265 266 279 281 277 280 285 292
274 266 221 208 199 189 187 178 171 164 158 154 159 158 157 160 163 164 166 175 176 184 198 204 206 203 202 209 227 226 227 256 263 254 254 261 263 264 268 275 285 291 298 297 291
266 242 208 203 193 189 186 167 163 159 158 158 161 163 162 158 157 157 166 176 181 184 191 198 202 205 199 199 211 227 250 255 238 234 238 244 251 265 282 289 290 289 288 287 289
254 219 196 195 187 187 174 166 161 159 162 161 166 161 154 154 161 170 176 176 180 183 181 193 215 220 217 213 197 183 162 169 176 176 188 224 250 269 279 287 292 293 294 294 295
238 198 194 189 186 186 172 166 162 162 163 163 168 165 165 166 172 180 182 184 191 195 197 203 201 184 173 148 134 134 144 162 190 203 222 251 271 288 295 294 295 296 299 300 301
220 194 197 187 186 180 173 170 165 169 169 168 173 170 166 172 174 178 183 190 196 197 192 178 153 143 141 143 145 149 168 203 282 305 308 305 299 296 292 294 296 300 303 306 306
210 195 195 186 183 178 175 177 170 176 171 175 174 170 175 179 185 192 188 192 192 176 163 147 147 150 154 152 168 230 273 307 314 310 306 298 297 299 300 304 308 313 315 315 317
201 193 193 189 182 182 180 182 180 177 178 176 181 182 186 185 198 192 186 188 176 165 159 160 169 164 167 195 265 286 293 295 296 300 301 304 304 304 309 317 320 318 318 319 317
194 189 190 186 185 187 187 185 179 177 180 185 183 180 187 197 193 183 186 180 180 180 184 181 182 191 229 263 279 282 284 286 294 300 309 306 306 310 316 317 319 320 320 318 317
191 186 189 188 189 190 189 185 178 181 186 190 185 186 193 190 190 193 190 193 197 195 200 206 218 241 262 272 277 278 283 289 291 300 306 303 304 311 314 317 318 322 322 321 319
187 184 190 192 193 194 190 184 183 186 190 194 190 195 189 190 199 204 199 199 201 209 217 229 246 262 267 276 281 286 289 291 292 298 304 304 305 310 314 316 318 321 320 320 319
182 187 192 195 195 194 188 187 190 192 196 198 194 198 193 189 196 205 212 221 227 235 243 248 254 258 266 276 282 289 288 291 293 299 302 300 306 309 311 313 318 321 320 320 322
184 190 195 196 196 192 191 191 192 197 200 198 199 197 203 204 208 212 218 231 236 239 247 254 265 271 275 273 279 287 286 287 293 297 300 299 304 308 310 314 317 320 321 320 321